Satellite-Ground Cal/Val Site Overpasses Predictions

Prediction of Satellite NPP Overpassing Cal/Val Site: Antarctic Dome C

Ground Cal/Val Site Location: Latitude: -75.10, Longitude: 123.35; Satellite-Ground Site NADIR distance within 100 km.

Table of predicted overpasses for the next 14.0 days since TLE Epoch: 8/4/2017
Interval Starting Time Ending Time Minimum Distance Time Minimum Distance (km)
1 08/06/2017 07:31:23 08/06/2017 07:31:52 08/06/2017 07:31:37 4.37
2 08/09/2017 14:54:52 08/09/2017 14:55:21 08/09/2017 14:55:07 20.36
3 08/10/2017 14:36:12 08/10/2017 14:36:26 08/10/2017 14:36:19 86.47
4 08/11/2017 07:37:45 08/11/2017 07:38:12 08/11/2017 07:37:59 33.42
5 08/12/2017 07:19:00 08/12/2017 07:19:18 08/12/2017 07:19:09 76.70
6 08/14/2017 15:01:16 08/14/2017 15:01:40 08/14/2017 15:01:28 57.69
7 08/15/2017 14:42:27 08/15/2017 14:42:52 08/15/2017 14:42:40 51.28
8 08/16/2017 07:44:08 08/16/2017 07:44:29 08/16/2017 07:44:19 68.98


NCC Satellite Cal/Val Overpasses Prediction Service
